This is the latest recevied weather packets stored in our database for station/object KA7RLM. If no packets are shown the sender has not sent any weather packets the latest 10 day(s).
| Time | Temp. | Humidity | Pressure | Rain* | Wind** | Luminosity | Snow |
|---|---|---|---|---|---|---|---|
| 1777529422 | 12.22° C | 73% | 1022.2 hPa | 0 mm | - | - | - |
| 1777524619 | 13.89° C | 64% | 1022.4 hPa | 0 mm | - | - | - |
| 1777518629 | 17.22° C | 54% | 1021.8 hPa | 0 mm | - | - | - |
| 1777512630 | 21.11° C | 48% | 1022 hPa | 0 mm | - | - | - |
| 1777507816 | 20.56° C | 49% | 1022.1 hPa | 0 mm | - | - | - |
| 1777505416 | 21.11° C | 50% | 1022.3 hPa | 0 mm | - | - | - |
| 1777503632 | 21.11° C | 51% | 1022.8 hPa | 0 mm | - | - | - |
| 1777500035 | 20° C | 52% | 1023.2 hPa | 0 mm | - | - | - |
| 1777497017 | 18.89° C | 55% | 1023.5 hPa | 0 mm | - | - | - |
| 1777493420 | 16.67° C | 58% | 1024.1 hPa | 0 mm | - | - | - |
| 1777491618 | 16.67° C | 60% | 1024.3 hPa | 0 mm | - | - | - |
| 1777491022 | 16.67° C | 60% | 1024.3 hPa | 0 mm | - | - | - |
| 1777488616 | 16.11° C | 61% | 1024.6 hPa | 0 mm | - | - | - |
| 1777486846 | 15.56° C | 61% | 1024.8 hPa | 0 mm | - | - | - |
| 1777477828 | 12.78° C | 75% | 1025.7 hPa | 0 mm | - | - | - |
| 1777476615 | 11.11° C | 84% | 1025.8 hPa | 0 mm | - | - | - |
| 1777467618 | 8.89° C | 88% | 1025.3 hPa | 0 mm | - | - | - |
| 1777456222 | 9.44° C | 82% | 1025.1 hPa | 0 mm | - | - | - |
| 1777455068 | 9.44° C | 81% | 1025.1 hPa | 0 mm | - | - | - |
| 1777453822 | 10° C | 80% | 1025.3 hPa | 0 mm | - | - | - |
| 1777451451 | 10° C | 79% | 1025.3 hPa | 0 mm | - | - | - |
| 1777445448 | 10.56° C | 76% | 1024.8 hPa | 0 mm | - | - | - |
| 1777443621 | 11.11° C | 76% | 1024.8 hPa | 0 mm | - | - | - |
| 1777443024 | 11.11° C | 77% | 1024.8 hPa | 0 mm | - | - | - |
| 1777439420 | 11.11° C | 77% | 1024.6 hPa | 0 mm | - | - | - |
* Rain latest hour (hover to see other rain measurements)
** Current wind speed in m/s (hover to see current wind gust speed)